QPF
0.00 0.00 0.00 0.00 0.00 0.00 0.00 0.00 0.00 0.00 0.00 0.00 0.00 0.00 0.00 0.00 0.00 0.00 0.00 0.01 0.00 0.00 0.00 0.00 0.00 0.00 0.00 0.00 0.00 0.00 0.00 0.00 0.00 0.00 0.00 0.00 0.00 0.00 0.00 0.00 0.00 0.00 0.00 0.00 0.00 0.00 0.00 0.00 0.00
0.00 0.00 0.00 0.00 0.00 0.00 0.00 0.00 0.00 0.00 0.00 0.00 0.00 0.00 0.00 0.00 0.00 0.00 0.01 0.02 0.00 0.00 0.00 0.00 0.00 0.00 0.00 0.00 0.00 0.00 0.00 0.00 0.00 0.00 0.00 0.00 0.00 0.00 0.00 0.00 0.00 0.00 0.00 0.00 0.00 0.00 0.00 0.00 0.00
0.00 0.00 0.00 0.00 0.00 0.00 0.00 0.00 0.00 0.00 0.00 0.00 0.00 0.00 0.00 0.00 0.00 0.00 0.01 0.01 0.01 0.01 0.00 0.01 0.01 0.01 0.00 0.00 0.00 0.00 0.00 0.00 0.00 0.00 0.00 0.00 0.00 0.00 0.00 0.00 0.00 0.00 0.00 0.00 0.00 0.00 0.00 0.00 0.00
0.00 0.00 0.00 0.00 0.00 0.00 0.00 0.00 0.00 0.00 0.00 0.00 0.00 0.00 0.00 0.00 0.00 0.00 0.00 0.00 0.00 0.00 0.00 0.00 0.01 0.01 0.00 0.00 0.00 0.00 0.00 0.00 0.00 0.00 0.00 0.00 0.00 0.00 0.00 0.00 0.00 0.00 0.00 0.00 0.00 0.00 0.00 0.00 0.00
0.00 0.00 0.00 0.00 0.00 0.00 0.00 0.00 0.00 0.00 0.00 0.00 0.00 0.00 0.00 0.00 0.00 0.00 0.00 0.00 0.00 0.00 0.00 0.00 0.00 0.01 0.00 0.00 0.01 0.01 0.01 0.00 0.00 0.00 0.00 0.00 0.00 0.00 0.00 0.00 0.00 0.00 0.00 0.00 0.00 0.00 0.00 0.00 0.00
0.00 0.00 0.00 0.00 0.00 0.00 0.00 0.00 0.00 0.00 0.00 0.00 0.00 0.00 0.00 0.00 0.00 0.00 0.00 0.00 0.00 0.00 0.00 0.00 0.00 0.00 0.00 0.00 0.00 0.00 0.01 0.04 0.01 0.00 0.00 0.02 0.02 0.00 0.00 0.00 0.00 0.00 0.00 0.00 0.00 0.00 0.00 0.00 0.00
0.00 0.00 0.00 0.00 0.00 0.00 0.00 0.00 0.00 0.00 0.00 0.00 0.00 0.00 0.00 0.00 0.00 0.00 0.00 0.00 0.00 0.00 0.00 0.00 0.00 0.00 0.00 0.00 0.01 0.03 0.01 0.05 0.05 0.02 0.06 0.06 0.04 0.02 0.00 0.00 0.00 0.00 0.00 0.00 0.00 0.00 0.00 0.00 0.00
0.00 0.00 0.00 0.00 0.00 0.00 0.00 0.00 0.00 0.00 0.00 0.00 0.00 0.00 0.00 0.00 0.00 0.00 0.00 0.00 0.00 0.00 0.00 0.00 0.00 0.00 0.00 0.00 0.00 0.04 0.04 0.02 0.01 0.03 0.08 0.10 0.10 0.05 0.01 0.00 0.00 0.00 0.00 0.00 0.00 0.00 0.00 0.00 0.00
0.00 0.00 0.00 0.00 0.00 0.00 0.00 0.00 0.00 0.00 0.00 0.00 0.00 0.00 0.00 0.00 0.00 0.00 0.00 0.00 0.00 0.00 0.00 0.00 0.00 0.00 0.00 0.00 0.00 0.00 0.02 0.03 0.02 0.00 0.04 0.11 0.12 0.14 0.10 0.01 0.00 0.00 0.00 0.00 0.00 0.00 0.00 0.00 0.00
0.00 0.00 0.00 0.00 0.00 0.00 0.00 0.00 0.00 0.00 0.00 0.00 0.00 0.00 0.00 0.00 0.00 0.00 0.00 0.00 0.00 0.00 0.00 0.00 0.00 0.00 0.00 0.00 0.00 0.00 0.00 0.00 0.02 0.01 0.00 0.00 0.03 0.08 0.07 0.10 0.07 0.00 0.01 0.00 0.00 0.00 0.00 0.00 0.00
0.00 0.00 0.00 0.00 0.00 0.00 0.00 0.00 0.00 0.00 0.00 0.00 0.00 0.00 0.00 0.00 0.00 0.00 0.00 0.00 0.00 0.00 0.00 0.00 0.00 0.00 0.00 0.00 0.00 0.00 0.00 0.00 0.00 0.00 0.00 0.00 0.01 0.01 0.02 0.03 0.05 0.02 0.00 0.00 0.00 0.00 0.00 0.00 0.00
0.00 0.00 0.00 0.00 0.00 0.00 0.00 0.00 0.00 0.00 0.00 0.00 0.00 0.00 0.00 0.00 0.00 0.00 0.00 0.00 0.00 0.00 0.00 0.00 0.00 0.00 0.00 0.00 0.00 0.00 0.00 0.00 0.00 0.00 0.00 0.00 0.00 0.01 0.02 0.03 0.03 0.03 0.02 0.00 0.00 0.00 0.00 0.00 0.00
0.00 0.00 0.00 0.00 0.00 0.00 0.00 0.00 0.00 0.00 0.00 0.00 0.00 0.00 0.00 0.00 0.00 0.00 0.00 0.00 0.00 0.00 0.00 0.00 0.00 0.00 0.00 0.00 0.00 0.00 0.00 0.00 0.00 0.00 0.00 0.00 0.00 0.00 0.02 0.02 0.03 0.03 0.04 0.03 0.01 0.00 0.00 0.00 0.00
0.00 0.00 0.00 0.00 0.00 0.00 0.00 0.00 0.00 0.00 0.00 0.00 0.00 0.00 0.00 0.00 0.00 0.00 0.00 0.00 0.00 0.00 0.00 0.00 0.00 0.00 0.00 0.00 0.00 0.00 0.00 0.00 0.00 0.00 0.00 0.00 0.00 0.00 0.01 0.04 0.06 0.06 0.05 0.05 0.03 0.01 0.01 0.00 0.00
0.00 0.00 0.00 0.00 0.00 0.00 0.00 0.00 0.00 0.00 0.00 0.00 0.00 0.00 0.00 0.00 0.00 0.00 0.00 0.00 0.00 0.00 0.00 0.00 0.00 0.00 0.00 0.00 0.00 0.00 0.00 0.00 0.00 0.00 0.00 0.00 0.00 0.00 0.00 0.00 0.03 0.08 0.07 0.06 0.04 0.02 0.01 0.00 0.00
0.00 0.00 0.00 0.00 0.00 0.00 0.00 0.00 0.00 0.00 0.00 0.00 0.00 0.00 0.00 0.00 0.00 0.00 0.00 0.00 0.00 0.00 0.00 0.00 0.00 0.00 0.00 0.00 0.00 0.00 0.00 0.00 0.00 0.00 0.00 0.00 0.00 0.00 0.00 0.00 0.00 0.03 0.10 0.10 0.06 0.02 0.01 0.00 0.00
0.00 0.00 0.00 0.00 0.00 0.00 0.00 0.00 0.00 0.00 0.00 0.00 0.00 0.00 0.00 0.00 0.00 0.00 0.00 0.00 0.00 0.00 0.00 0.00 0.00 0.00 0.00 0.00 0.00 0.00 0.00 0.00 0.00 0.00 0.00 0.00 0.00 0.00 0.00 0.00 0.00 0.01 0.05 0.11 0.09 0.04 0.01 0.00 0.00
0.00 0.00 0.00 0.00 0.00 0.00 0.00 0.00 0.00 0.00 0.00 0.00 0.00 0.00 0.00 0.00 0.00 0.00 0.00 0.00 0.00 0.00 0.00 0.00 0.00 0.00 0.00 0.00 0.00 0.00 0.00 0.00 0.00 0.00 0.00 0.00 0.00 0.00 0.00 0.00 0.00 0.00 0.01 0.06 0.10 0.07 0.02 0.01 0.00
0.00 0.00 0.00 0.00 0.00 0.00 0.00 0.00 0.00 0.00 0.00 0.00 0.00 0.00 0.00 0.00 0.00 0.00 0.00 0.00 0.00 0.00 0.00 0.00 0.00 0.00 0.00 0.00 0.00 0.00 0.00 0.00 0.00 0.00 0.00 0.00 0.00 0.00 0.00 0.00 0.00 0.00 0.00 0.01 0.04 0.08 0.07 0.05 0.04
0.00 0.00 0.00 0.00 0.00 0.00 0.00 0.00 0.00 0.00 0.00 0.00 0.00 0.00 0.00 0.00 0.00 0.00 0.00 0.00 0.00 0.00 0.00 0.00 0.00 0.00 0.00 0.00 0.00 0.00 0.00 0.00 0.00 0.00 0.00 0.00 0.00 0.00 0.00 0.00 0.00 0.00 0.00 0.00 0.01 0.02 0.06 0.11 0.11
0.00 0.00 0.00 0.00 0.00 0.00 0.00 0.00 0.00 0.00 0.00 0.00 0.00 0.00 0.00 0.00 0.00 0.00 0.00 0.00 0.00 0.00 0.00 0.00 0.00 0.00 0.00 0.00 0.00 0.00 0.00 0.00 0.00 0.00 0.00 0.00 0.00 0.00 0.00 0.00 0.00 0.00 0.00 0.00 0.00 0.01 0.04 0.07 0.10
0.00 0.00 0.00 0.00 0.00 0.00 0.00 0.00 0.00 0.00 0.00 0.00 0.00 0.00 0.00 0.00 0.00 0.00 0.00 0.00 0.00 0.00 0.00 0.00 0.00 0.00 0.00 0.00 0.00 0.00 0.00 0.00 0.00 0.00 0.00 0.00 0.00 0.00 0.00 0.00 0.00 0.00 0.00 0.00 0.00 0.00 0.01 0.03 0.06
0.00 0.00 0.00 0.00 0.00 0.00 0.00 0.00 0.00 0.00 0.00 0.00 0.00 0.00 0.00 0.00 0.00 0.00 0.00 0.00 0.00 0.00 0.00 0.00 0.00 0.00 0.00 0.00 0.00 0.00 0.00 0.00 0.00 0.00 0.00 0.00 0.00 0.00 0.00 0.00 0.00 0.00 0.00 0.00 0.00 0.00 0.01 0.01 0.01
0.00 0.00 0.00 0.00 0.00 0.00 0.00 0.00 0.00 0.00 0.00 0.00 0.00 0.00 0.00 0.00 0.00 0.00 0.00 0.00 0.00 0.00 0.00 0.00 0.00 0.00 0.00 0.00 0.00 0.00 0.01 0.00 0.00 0.00 0.00 0.00 0.00 0.00 0.00 0.00 0.00 0.00 0.00 0.00 0.00 0.00 0.01 0.01 0.01
0.00 0.00 0.00 0.00 0.00 0.00 0.00 0.00 0.00 0.00 0.00 0.00 0.00 0.00 0.00 0.00 0.00 0.00 0.00 0.00 0.00 0.00 0.00 0.00 0.00 0.00 0.00 0.00 0.00 0.00 0.01 0.01 0.00 0.00 0.00 0.00 0.00 0.00 0.00 0.00 0.00 0.00 0.00 0.00 0.00 0.00 0.00 0.01 0.01
0.00 0.00 0.00 0.00 0.00 0.00 0.00 0.00 0.00 0.00 0.00 0.00 0.00 0.00 0.00 0.00 0.00 0.00 0.00 0.00 0.00 0.00 0.00 0.00 0.00 0.00 0.00 0.00 0.00 0.01 0.01 0.01 0.01 0.00 0.00 0.00 0.00 0.00 0.00 0.00 0.00 0.00 0.00 0.01 0.01 0.01 0.01 0.02 0.03
0.00 0.00 0.00 0.00 0.00 0.00 0.00 0.00 0.00 0.00 0.00 0.00 0.00 0.00 0.00 0.00 0.00 0.00 0.00 0.00 0.00 0.00 0.00 0.00 0.00 0.00 0.00 0.00 0.00 0.00 0.00 0.00 0.00 0.00 0.00 0.00 0.00 0.00 0.00 0.00 0.00 0.00 0.00 0.00 0.00 0.01 0.01 0.01 0.02
0.00 0.00 0.00 0.00 0.00 0.00 0.00 0.00 0.00 0.00 0.00 0.00 0.00 0.00 0.00 0.00 0.00 0.00 0.00 0.00 0.00 0.00 0.00 0.00 0.00 0.00 0.00 0.00 0.00 0.00 0.00 0.00 0.00 0.00 0.00 0.00 0.00 0.00 0.00 0.00 0.00 0.00 0.00 0.00 0.00 0.01 0.01 0.00 0.00
0.00 0.00 0.00 0.00 0.00 0.00 0.00 0.00 0.00 0.00 0.00 0.00 0.00 0.00 0.00 0.00 0.00 0.00 0.00 0.00 0.00 0.00 0.00 0.00 0.00 0.00 0.00 0.00 0.00 0.00 0.00 0.00 0.00 0.00 0.00 0.00 0.00 0.00 0.00 0.00 0.00 0.00 0.00 0.01 0.01 0.01 0.00 0.00 0.00
0.00 0.00 0.01 0.01 0.02 0.01 0.00 0.00 0.00 0.00 0.00 0.00 0.00 0.00 0.00 0.00 0.00 0.00 0.00 0.00 0.00 0.00 0.00 0.00 0.00 0.00 0.00 0.00 0.00 0.00 0.00 0.00 0.00 0.00 0.00 0.00 0.00 0.00 0.00 0.00 0.00 0.00 0.00 0.00 0.02 0.03 0.03 0.02 0.02
MSLP
1012.72 1012.55 1012.32 1012.13 1012.53 1012.14 1012.10 1012.23 1012.34 1011.62 1011.64 1011.92 1011.62 1011.51 1012.17 1012.74 1013.03 1014.10 1014.45 1014.93 1014.66 1014.45 1014.47 1014.54 1014.80 1014.74 1014.73 1014.73 1014.64 1014.68 1014.64 1014.52 1014.46 1014.32 1014.18 1014.12 1014.29 1014.41 1014.65 1014.97 1015.09 1015.30 1015.45 1015.47 1015.60 1015.63 1015.69 1015.76 1015.94
1012.66 1012.31 1012.19 1012.32 1012.15 1011.90 1012.30 1012.22 1012.33 1011.91 1011.80 1012.18 1012.19 1012.53 1012.81 1013.96 1014.32 1014.82 1015.21 1015.33 1015.02 1014.97 1015.01 1015.11 1015.21 1015.16 1015.21 1015.22 1014.99 1014.89 1014.79 1014.80 1014.56 1014.56 1014.49 1014.52 1014.50 1014.64 1014.65 1014.94 1015.21 1015.43 1015.49 1015.55 1015.62 1015.67 1015.72 1015.84 1015.98
1012.59 1012.36 1012.24 1012.63 1012.77 1012.21 1012.19 1012.51 1012.55 1012.20 1011.99 1012.05 1012.63 1013.45 1014.42 1016.25 1016.31 1016.98 1017.47 1016.31 1015.86 1016.01 1016.00 1016.24 1015.92 1015.57 1015.48 1015.51 1015.50 1015.46 1014.99 1014.95 1014.86 1014.90 1014.83 1014.96 1014.97 1015.02 1014.87 1014.96 1015.16 1015.41 1015.45 1015.48 1015.59 1015.71 1015.84 1015.96 1016.07
1012.47 1012.47 1013.40 1012.96 1012.86 1013.01 1012.84 1012.70 1012.85 1012.57 1012.29 1012.54 1013.14 1014.37 1016.31 1018.46 1018.17 1019.04 1018.33 1017.35 1017.00 1017.06 1017.06 1017.00 1016.70 1016.31 1015.81 1015.71 1015.47 1015.67 1015.44 1015.27 1015.06 1015.12 1015.12 1015.06 1015.08 1015.29 1015.05 1015.20 1015.16 1015.41 1015.41 1015.44 1015.56 1015.67 1015.78 1015.99 1016.11
1013.06 1012.98 1013.11 1013.30 1013.17 1013.12 1013.08 1012.96 1012.63 1012.70 1012.87 1013.18 1013.65 1015.45 1017.10 1018.98 1019.44 1019.19 1018.64 1018.49 1017.96 1018.14 1017.89 1017.56 1017.33 1017.09 1016.75 1016.40 1016.15 1015.77 1015.49 1015.54 1015.34 1015.18 1015.11 1015.11 1015.18 1015.32 1015.28 1015.23 1015.27 1015.39 1015.47 1015.41 1015.48 1015.63 1015.81 1015.92 1016.07
1013.32 1013.60 1013.38 1013.30 1013.27 1013.22 1013.20 1013.14 1012.83 1013.05 1013.34 1013.75 1014.60 1015.89 1018.37 1019.56 1019.65 1019.50 1019.24 1019.01 1019.03 1018.67 1018.58 1018.37 1017.90 1017.79 1017.51 1017.20 1016.80 1016.48 1016.06 1015.70 1015.52 1015.43 1015.29 1015.08 1015.20 1015.33 1015.36 1015.40 1015.46 1015.42 1015.40 1015.42 1015.46 1015.52 1015.74 1015.93 1016.06
1013.54 1013.74 1013.97 1013.65 1013.41 1013.24 1013.21 1013.27 1013.25 1013.45 1013.72 1014.31 1014.93 1016.50 1018.58 1019.45 1019.84 1020.06 1019.96 1019.91 1019.72 1019.53 1019.31 1019.29 1018.96 1018.51 1018.04 1017.77 1017.58 1017.19 1016.75 1016.10 1015.78 1015.66 1015.55 1015.20 1015.16 1015.16 1015.15 1015.21 1015.32 1015.43 1015.47 1015.49 1015.41 1015.46 1015.62 1015.79 1016.02
1014.14 1014.17 1014.35 1014.13 1013.53 1013.38 1013.33 1013.28 1013.68 1013.84 1014.55 1015.22 1016.18 1017.12 1018.90 1019.89 1020.34 1020.31 1020.39 1020.42 1020.23 1020.21 1020.13 1020.05 1019.58 1019.10 1018.70 1018.35 1018.18 1017.78 1017.19 1016.71 1016.21 1015.71 1015.63 1015.60 1015.32 1014.96 1015.02 1015.17 1015.15 1015.16 1015.28 1015.37 1015.42 1015.51 1015.62 1015.74 1015.90
1014.48 1014.49 1014.27 1014.09 1013.90 1013.54 1013.53 1013.53 1014.13 1014.52 1014.93 1016.51 1017.75 1018.70 1020.09 1020.52 1020.66 1020.69 1020.69 1020.61 1020.49 1020.57 1020.63 1020.67 1020.37 1019.94 1019.55 1018.74 1018.50 1018.14 1017.65 1017.14 1016.56 1016.16 1015.81 1015.42 1015.16 1014.93 1014.62 1014.58 1014.78 1015.00 1015.06 1015.15 1015.18 1015.29 1015.53 1015.76 1015.88
1014.45 1014.86 1014.51 1014.36 1014.24 1013.89 1013.91 1014.01 1014.48 1015.15 1016.28 1017.96 1019.06 1020.26 1020.67 1020.91 1021.23 1021.39 1021.32 1021.36 1021.41 1021.30 1021.20 1021.15 1021.00 1020.56 1020.18 1019.46 1019.13 1018.65 1018.18 1017.77 1017.26 1016.75 1016.31 1015.87 1015.23 1014.96 1014.90 1014.69 1014.53 1014.60 1014.74 1014.92 1014.93 1015.05 1015.30 1015.66 1015.26
1015.11 1014.70 1014.87 1014.54 1014.48 1014.38 1014.28 1014.60 1015.26 1016.17 1017.46 1018.58 1019.73 1021.15 1021.78 1021.98 1022.11 1022.30 1022.30 1022.74 1022.76 1022.60 1022.26 1022.04 1021.76 1021.40 1021.02 1020.42 1019.80 1019.19 1018.79 1018.26 1017.78 1017.23 1016.94 1016.42 1015.70 1014.73 1014.55 1014.49 1014.34 1014.22 1014.28 1014.46 1014.56 1014.63 1014.71 1014.71 1014.82
1015.49 1015.12 1014.92 1014.73 1014.99 1014.93 1014.93 1015.36 1016.76 1018.16 1019.96 1020.54 1021.12 1022.10 1022.62 1023.00 1023.25 1022.99 1023.26 1023.46 1023.34 1023.03 1022.90 1022.61 1022.23 1021.81 1021.52 1021.14 1020.49 1019.94 1019.32 1018.74 1018.14 1017.65 1017.35 1016.89 1016.12 1015.40 1014.46 1014.14 1014.08 1014.14 1013.91 1013.96 1014.14 1014.22 1014.00 1014.12 1014.38
1015.96 1015.68 1015.33 1015.19 1015.25 1015.40 1015.57 1016.31 1017.48 1020.00 1021.19 1021.82 1022.27 1022.66 1023.18 1023.48 1023.66 1024.00 1024.23 1024.12 1023.93 1023.39 1023.21 1022.91 1022.52 1022.17 1021.86 1021.39 1020.97 1020.41 1019.80 1019.27 1018.71 1018.04 1017.61 1017.27 1016.60 1015.81 1015.19 1014.54 1013.67 1013.46 1013.58 1013.46 1013.57 1013.75 1013.81 1013.63 1013.69
1016.25 1016.06 1015.65 1015.39 1015.32 1015.51 1015.88 1017.17 1018.00 1020.65 1021.67 1022.31 1022.89 1023.44 1023.90 1024.18 1024.52 1024.43 1024.32 1024.23 1023.98 1023.74 1023.46 1023.25 1022.83 1022.55 1022.23 1021.70 1021.24 1020.70 1020.07 1019.44 1018.83 1018.18 1017.64 1017.31 1016.64 1016.10 1015.56 1014.70 1014.06 1013.02 1012.84 1013.01 1013.03 1013.09 1013.24 1013.29 1013.18
1016.46 1016.23 1015.70 1015.38 1015.48 1015.55 1016.08 1017.74 1019.24 1020.70 1021.85 1022.57 1023.28 1024.03 1024.59 1024.85 1025.05 1025.05 1025.14 1024.91 1024.71 1024.19 1023.79 1023.32 1022.84 1022.62 1022.31 1021.81 1021.31 1020.63 1020.09 1019.66 1018.92 1018.17 1017.57 1017.12 1016.71 1015.99 1015.42 1014.65 1014.00 1013.31 1012.38 1012.13 1012.24 1012.43 1012.51 1012.76 1012.83
1016.54 1016.44 1015.91 1015.63 1015.68 1015.84 1016.26 1017.54 1020.02 1021.30 1022.13 1023.12 1023.88 1024.30 1024.71 1025.03 1025.29 1025.44 1025.35 1025.11 1024.76 1024.41 1023.96 1023.60 1023.22 1022.73 1022.23 1021.67 1021.08 1020.42 1019.80 1019.37 1018.79 1018.17 1017.49 1016.85 1016.34 1015.95 1015.30 1014.41 1013.59 1012.98 1012.85 1012.08 1011.59 1011.56 1011.82 1011.76 1011.96
1017.20 1016.41 1016.00 1015.62 1015.59 1015.98 1016.70 1018.13 1020.45 1021.76 1022.48 1023.38 1024.19 1024.71 1024.91 1025.20 1025.31 1025.36 1025.38 1025.11 1024.95 1024.82 1024.29 1023.89 1023.51 1022.94 1022.35 1021.66 1020.95 1020.14 1019.50 1018.78 1018.36 1018.03 1017.46 1016.57 1015.94 1015.61 1015.16 1014.45 1013.70 1013.08 1012.57 1011.97 1011.20 1010.26 1010.42 1010.29 1010.35
1016.95 1016.87 1016.55 1016.17 1015.90 1015.87 1016.64 1018.11 1020.10 1021.63 1022.47 1023.26 1024.07 1024.66 1025.02 1025.25 1025.43 1025.46 1025.42 1025.32 1025.25 1024.93 1024.46 1024.08 1023.58 1022.96 1022.31 1021.51 1020.87 1020.09 1019.26 1018.66 1018.14 1017.55 1017.17 1016.67 1015.84 1015.28 1014.91 1014.24 1013.52 1012.88 1012.04 1011.24 1010.87 1009.83 1009.06 1009.20 1009.58
1017.01 1016.89 1016.64 1016.19 1016.00 1016.34 1016.49 1017.46 1019.10 1021.03 1022.48 1023.50 1024.09 1024.49 1024.81 1025.09 1025.44 1025.48 1025.52 1025.39 1025.20 1024.64 1024.25 1023.90 1023.45 1023.04 1022.60 1021.79 1021.05 1020.29 1019.47 1018.79 1018.10 1017.45 1016.93 1016.32 1015.49 1014.81 1014.21 1013.72 1013.04 1012.35 1011.60 1010.78 1010.16 1009.57 1009.19 1007.80 1009.21
1017.13 1016.97 1016.61 1016.27 1015.87 1016.18 1016.31 1016.93 1018.78 1020.38 1021.40 1022.68 1023.75 1024.60 1025.03 1025.20 1025.21 1025.31 1025.31 1025.31 1025.03 1024.70 1024.49 1024.10 1023.76 1023.25 1022.84 1022.33 1021.69 1020.99 1020.00 1019.07 1018.21 1017.14 1016.63 1015.88 1015.09 1014.45 1013.81 1013.13 1012.48 1011.86 1011.15 1010.56 1009.64 1008.90 1008.03 1008.50 1006.69
1017.20 1017.03 1016.75 1016.53 1016.06 1016.03 1016.39 1016.33 1017.95 1019.85 1021.36 1022.59 1023.68 1024.66 1025.27 1025.46 1025.49 1025.46 1025.43 1025.34 1025.29 1024.97 1024.72 1024.40 1023.91 1023.52 1023.01 1022.46 1021.72 1020.95 1020.13 1019.11 1018.18 1017.37 1016.44 1015.63 1014.85 1013.92 1013.29 1012.44 1011.92 1011.21 1010.73 1010.00 1009.56 1008.98 1008.20 1007.09 1007.39
1017.15 1016.91 1016.72 1016.54 1016.65 1015.91 1016.17 1015.15 1016.84 1018.75 1020.50 1022.04 1023.32 1024.46 1025.20 1025.60 1025.83 1025.89 1025.66 1025.46 1025.40 1025.23 1024.98 1024.63 1024.10 1023.55 1023.10 1022.63 1021.92 1021.12 1020.23 1019.31 1018.62 1017.62 1016.71 1015.95 1014.64 1013.43 1012.54 1011.83 1011.11 1010.54 1010.20 1009.57 1008.94 1008.45 1007.96 1007.24 1006.39
1016.90 1016.85 1016.81 1016.54 1016.38 1016.33 1016.24 1016.89 1015.61 1018.32 1019.65 1020.79 1022.70 1024.06 1025.08 1025.76 1025.97 1025.97 1025.91 1025.93 1025.62 1025.23 1025.06 1024.53 1024.12 1023.52 1023.15 1022.64 1022.03 1020.96 1020.22 1019.47 1018.52 1017.68 1016.87 1015.86 1014.58 1013.38 1012.18 1011.23 1010.51 1009.77 1009.11 1008.59 1008.18 1007.64 1007.06 1006.27 1006.04
1016.65 1016.77 1016.95 1017.06 1016.79 1015.88 1015.47 1016.49 1014.42 1017.65 1018.92 1020.67 1022.46 1023.83 1024.86 1025.52 1025.85 1026.20 1026.32 1026.18 1025.79 1025.45 1025.18 1024.50 1024.05 1023.44 1023.01 1022.60 1021.72 1020.96 1020.45 1019.51 1018.60 1017.86 1016.92 1015.83 1014.54 1013.22 1012.30 1011.46 1010.53 1009.62 1008.83 1007.99 1006.94 1006.59 1006.02 1005.52 1004.90
1016.50 1017.12 1017.08 1016.94 1016.80 1015.43 1015.55 1016.39 1015.69 1017.81 1019.22 1020.42 1022.15 1023.79 1024.87 1025.64 1025.93 1026.23 1026.33 1026.13 1025.84 1025.53 1025.23 1024.69 1024.28 1023.50 1023.16 1022.61 1021.81 1021.33 1020.69 1019.98 1019.30 1018.44 1017.50 1016.09 1014.67 1013.41 1012.34 1011.28 1010.10 1009.08 1008.00 1006.79 1005.85 1005.25 1004.94 1004.68 1003.99
1015.96 1016.47 1016.73 1016.37 1016.28 1016.04 1016.35 1015.97 1016.76 1018.73 1020.14 1021.37 1022.83 1024.07 1025.11 1025.84 1026.22 1026.35 1026.51 1026.40 1026.17 1025.94 1025.52 1025.06 1024.55 1024.08 1023.60 1022.83 1022.25 1021.64 1021.33 1020.76 1019.87 1019.03 1017.91 1016.68 1015.49 1014.09 1012.89 1011.63 1010.29 1009.04 1007.78 1006.51 1004.69 1004.15 1003.95 1003.51 1003.40
1015.83 1015.86 1015.86 1016.57 1016.92 1017.37 1016.47 1016.53 1017.86 1019.62 1020.98 1022.11 1023.21 1024.27 1025.31 1026.02 1026.51 1026.74 1026.84 1026.73 1026.41 1026.14 1025.79 1025.41 1025.17 1024.69 1023.97 1023.17 1022.70 1022.29 1021.98 1021.38 1020.41 1019.40 1018.25 1017.27 1015.87 1014.38 1012.97 1012.10 1010.92 1009.40 1008.06 1006.88 1005.58 1004.15 1004.00 1004.00 1003.51
1015.26 1015.56 1016.13 1017.25 1017.13 1016.76 1016.19 1016.96 1017.71 1019.14 1020.56 1022.18 1023.52 1024.49 1025.45 1026.28 1026.77 1026.94 1026.96 1026.87 1026.78 1026.49 1025.91 1025.91 1025.52 1024.99 1024.23 1023.59 1023.25 1022.97 1022.47 1021.81 1020.89 1019.75 1018.84 1017.74 1016.45 1014.76 1013.81 1013.01 1011.97 1010.05 1008.93 1008.40 1007.43 1006.18 1005.68 1005.30 1005.45
1015.36 1015.64 1016.38 1016.79 1017.44 1017.36 1017.11 1016.82 1017.63 1018.85 1019.84 1021.29 1023.01 1024.46 1025.54 1026.21 1026.80 1027.00 1027.11 1027.25 1027.22 1026.67 1026.31 1026.23 1025.71 1025.08 1024.84 1024.10 1023.71 1023.45 1022.65 1022.18 1021.43 1020.55 1019.82 1018.81 1017.40 1016.38 1015.29 1014.43 1012.83 1011.15 1011.05 1010.38 1009.80 1008.52 1007.85 1006.89 1007.19
1015.30 1015.62 1016.15 1016.91 1017.09 1017.53 1017.75 1016.96 1018.23 1019.23 1019.95 1021.23 1022.54 1023.97 1025.20 1026.15 1026.68 1027.06 1027.31 1027.55 1027.37 1026.91 1026.88 1026.53 1025.84 1025.47 1025.38 1024.68 1024.24 1024.24 1023.46 1022.86 1022.21 1021.59 1021.01 1019.95 1018.85 1017.70 1016.64 1015.59 1013.60 1013.15 1013.22 1012.33 1011.86 1011.15 1010.65 1009.27 1009.14
Thickness
5750 5750 5752 5749 5732 5725 5709 5717 5720 5730 5732 5738 5745 5744 5734 5733 5725 5709 5736 5733 5735 5737 5737 5736 5734 5735 5735 5735 5735 5734 5734 5735 5736 5736 5737 5737 5735 5734 5731 5728 5727 5723 5721 5720 5719 5718 5717 5715 5713
5745 5748 5746 5732 5721 5714 5709 5716 5713 5727 5738 5737 5739 5735 5732 5718 5730 5728 5725 5728 5730 5730 5730 5728 5728 5728 5727 5726 5727 5727 5728 5728 5731 5731 5731 5730 5730 5728 5729 5726 5723 5720 5719 5717 5715 5714 5713 5712 5710
5741 5743 5735 5716 5697 5707 5707 5709 5711 5723 5732 5735 5729 5729 5720 5701 5712 5708 5705 5716 5719 5718 5718 5717 5719 5720 5719 5718 5718 5717 5722 5722 5723 5723 5724 5722 5721 5720 5722 5722 5720 5718 5716 5715 5713 5711 5710 5708 5706
5734 5733 5717 5708 5696 5698 5702 5709 5709 5714 5726 5730 5726 5709 5704 5691 5696 5690 5697 5705 5708 5707 5708 5708 5710 5711 5713 5712 5714 5711 5713 5715 5717 5717 5716 5718 5716 5714 5716 5715 5717 5713 5712 5711 5710 5709 5708 5705 5703
5722 5717 5701 5691 5691 5698 5703 5707 5710 5710 5711 5714 5716 5697 5691 5685 5685 5688 5692 5693 5698 5696 5698 5699 5700 5700 5701 5703 5703 5706 5708 5708 5710 5711 5713 5713 5712 5710 5710 5711 5710 5709 5709 5708 5707 5707 5705 5704 5701
5709 5703 5692 5686 5686 5695 5701 5704 5707 5704 5707 5705 5699 5692 5676 5677 5679 5681 5684 5686 5686 5689 5688 5688 5691 5690 5690 5691 5694 5695 5698 5701 5702 5704 5705 5708 5707 5705 5706 5705 5705 5704 5704 5705 5704 5704 5702 5701 5699
5698 5692 5677 5679 5683 5690 5696 5703 5699 5698 5698 5695 5700 5681 5674 5672 5672 5671 5672 5674 5675 5676 5676 5675 5676 5678 5681 5681 5682 5683 5688 5692 5695 5697 5698 5700 5701 5702 5702 5702 5701 5700 5701 5701 5701 5700 5699 5698 5696
5692 5688 5670 5673 5680 5683 5694 5699 5697 5695 5687 5692 5685 5679 5670 5663 5661 5663 5663 5663 5665 5664 5663 5663 5666 5669 5671 5671 5672 5674 5678 5683 5687 5691 5691 5692 5695 5697 5697 5697 5698 5698 5697 5698 5698 5697 5695 5694 5693
5686 5678 5672 5673 5672 5681 5689 5689 5690 5690 5686 5672 5666 5662 5653 5653 5653 5653 5653 5654 5656 5655 5653 5652 5653 5657 5659 5664 5665 5668 5670 5674 5678 5681 5684 5686 5689 5691 5692 5695 5694 5694 5694 5693 5694 5693 5691 5689 5688
5682 5669 5672 5676 5676 5679 5682 5682 5680 5680 5674 5661 5654 5646 5646 5645 5643 5641 5641 5641 5641 5642 5643 5643 5643 5647 5649 5653 5655 5658 5661 5663 5666 5669 5673 5676 5681 5684 5686 5688 5689 5690 5690 5689 5689 5689 5688 5685 5687
5669 5673 5669 5675 5676 5677 5677 5674 5674 5670 5665 5657 5650 5636 5631 5632 5630 5628 5627 5623 5622 5624 5627 5628 5630 5633 5636 5640 5644 5648 5650 5653 5655 5658 5661 5665 5671 5678 5681 5683 5684 5686 5685 5684 5684 5684 5685 5685 5685
5666 5666 5669 5672 5667 5669 5669 5668 5652 5644 5633 5634 5631 5623 5620 5617 5614 5616 5614 5611 5612 5615 5616 5618 5620 5623 5626 5628 5632 5636 5639 5643 5646 5649 5650 5654 5660 5666 5673 5677 5678 5679 5681 5681 5679 5680 5683 5685 5683
5655 5656 5660 5664 5661 5661 5664 5657 5647 5624 5621 5620 5618 5616 5611 5608 5606 5602 5599 5599 5600 5605 5606 5609 5611 5613 5615 5618 5621 5625 5628 5631 5635 5639 5641 5643 5648 5655 5659 5665 5673 5675 5676 5678 5676 5675 5677 5682 5683
5649 5648 5652 5655 5657 5658 5657 5644 5645 5621 5617 5612 5609 5604 5600 5597 5594 5595 5594 5594 5594 5595 5598 5599 5601 5603 5605 5608 5610 5613 5618 5621 5625 5629 5633 5635 5639 5643 5647 5654 5660 5669 5672 5672 5673 5673 5673 5675 5679
5642 5642 5646 5649 5648 5650 5651 5637 5626 5620 5613 5607 5601 5593 5588 5586 5584 5584 5582 5583 5583 5587 5588 5591 5593 5594 5596 5599 5602 5605 5608 5611 5615 5619 5623 5626 5628 5633 5637 5643 5650 5657 5665 5668 5668 5668 5669 5670 5672
5635 5633 5635 5641 5640 5642 5646 5643 5613 5609 5606 5595 5590 5588 5582 5578 5575 5573 5573 5574 5575 5576 5578 5580 5581 5584 5587 5590 5593 5596 5599 5602 5605 5609 5612 5615 5619 5622 5627 5633 5640 5647 5650 5658 5663 5666 5664 5668 5668
5616 5630 5625 5633 5637 5634 5631 5622 5599 5594 5596 5586 5578 5575 5575 5570 5568 5566 5565 5565 5564 5564 5566 5567 5568 5571 5574 5578 5582 5586 5589 5592 5594 5596 5600 5606 5609 5611 5615 5622 5627 5631 5638 5646 5654 5665 5666 5669 5672
5616 5614 5612 5617 5628 5628 5623 5614 5593 5584 5585 5580 5572 5566 5563 5562 5558 5556 5555 5553 5552 5553 5555 5556 5557 5560 5562 5565 5567 5570 5575 5578 5581 5583 5586 5590 5596 5598 5601 5608 5616 5620 5625 5638 5643 5655 5663 5661 5663
5606 5603 5603 5612 5614 5612 5617 5617 5599 5579 5570 5564 5561 5558 5555 5551 5546 5545 5543 5541 5540 5543 5545 5545 5547 5547 5547 5550 5552 5555 5559 5562 5566 5568 5569 5573 5580 5585 5589 5594 5602 5609 5617 5623 5634 5642 5644 5653 5647
5594 5593 5596 5600 5604 5601 5607 5610 5588 5574 5575 5564 5553 5543 5539 5539 5538 5534 5533 5531 5530 5530 5530 5532 5531 5532 5531 5531 5533 5535 5541 5545 5549 5554 5553 5556 5560 5564 5571 5576 5584 5593 5602 5610 5618 5630 5641 5635 5643
5581 5579 5580 5584 5592 5590 5587 5604 5587 5567 5554 5544 5536 5528 5523 5521 5521 5521 5519 5518 5516 5517 5516 5515 5515 5513 5513 5514 5516 5520 5523 5528 5532 5534 5539 5540 5542 5546 5550 5558 5565 5573 5580 5593 5601 5607 5619 5632 5638
5563 5571 5572 5572 5567 5573 5580 5594 5589 5572 5555 5540 5529 5517 5511 5508 5505 5504 5504 5505 5503 5501 5500 5499 5499 5500 5499 5498 5500 5502 5505 5510 5511 5515 5519 5519 5524 5533 5539 5545 5553 5558 5562 5570 5584 5595 5598 5608 5628
5556 5560 5558 5559 5557 5556 5563 5558 5608 5554 5558 5549 5524 5510 5500 5494 5492 5492 5491 5487 5488 5489 5487 5488 5487 5487 5486 5485 5485 5489 5490 5492 5495 5498 5500 5507 5514 5520 5528 5536 5544 5550 5556 5562 5570 5580 5587 5599 5606
5551 5548 5543 5536 5540 5542 5563 5556 5608 5567 5556 5526 5511 5500 5492 5487 5483 5478 5474 5474 5476 5475 5474 5476 5476 5477 5475 5473 5475 5476 5475 5478 5481 5483 5489 5496 5503 5509 5513 5518 5526 5536 5543 5552 5566 5572 5580 5588 5595
5537 5528 5521 5526 5523 5543 5554 5542 5578 5547 5528 5523 5504 5489 5480 5473 5470 5467 5465 5465 5464 5463 5462 5464 5463 5465 5463 5461 5463 5462 5462 5463 5463 5468 5474 5483 5490 5495 5498 5506 5514 5523 5532 5543 5556 5567 5575 5582 5590
5525 5524 5516 5513 5525 5532 5532 5541 5559 5515 5502 5495 5483 5474 5467 5461 5457 5456 5453 5452 5450 5450 5451 5451 5451 5451 5450 5450 5449 5450 5447 5446 5449 5454 5461 5467 5470 5476 5482 5487 5494 5501 5509 5522 5544 5557 5566 5576 5583
5522 5518 5529 5511 5515 5497 5527 5529 5504 5490 5482 5474 5469 5464 5451 5447 5444 5442 5440 5439 5439 5440 5439 5439 5437 5437 5438 5440 5438 5437 5432 5432 5437 5441 5449 5454 5457 5463 5467 5466 5465 5466 5474 5490 5512 5537 5549 5559 5572
5522 5524 5509 5495 5499 5504 5526 5523 5535 5501 5482 5465 5455 5450 5445 5434 5431 5430 5430 5428 5428 5427 5431 5427 5427 5428 5430 5431 5427 5424 5423 5424 5428 5433 5436 5441 5444 5449 5449 5443 5435 5443 5451 5460 5481 5504 5521 5535 5541
5512 5507 5505 5505 5495 5500 5505 5528 5504 5493 5490 5471 5454 5442 5433 5429 5422 5420 5419 5417 5415 5418 5420 5416 5418 5419 5417 5418 5418 5415 5417 5417 5419 5421 5422 5424 5429 5428 5426 5426 5426 5431 5433 5439 5452 5474 5492 5511 5518
5512 5509 5506 5490 5499 5493 5495 5519 5474 5469 5479 5469 5454 5441 5429 5421 5416 5411 5408 5405 5407 5410 5406 5407 5411 5411 5407 5408 5407 5403 5405 5407 5408 5408 5407 5408 5410 5412 5414 5418 5422 5419 5417 5427 5435 5449 5463 5486 5496